Location: Peach Mountain Observatory
(42.3967°N, 83.9367°W)
Time: 14:31:20
(UTC-05:00)

Vanguard 1 Rocket - Visible Passes

Search period start: 24 January 2020 00:00
Search period end: 03 February 2020 00:00
Orbit: 650 x 4226 km, 34.3° (Epoch: 24 January)

Date Brightness Start Highest point End Pass type
(mag) Time Alt. Az. Time Alt. Az. Time Alt. Az.
24 Jan 12.2 17:53:05 10° W 18:08:36 25° SW 18:26:50 10° S visible
25 Jan 12.5 19:21:19 10° WSW 19:23:50 10° SW 19:26:23 10° SW visible
26 Jan 12.4 17:57:45 10° W 18:10:37 19° SW 18:25:36 10° S visible
28 Jan 12.5 18:04:14 10° WSW 18:12:46 13° SW 18:22:18 10° SSW visible
29 Jan 10.3 07:12:01 10° SE 07:12:49 10° SE 07:13:39 10° SE visible
31 Jan 9.9 07:12:26 10° S 07:15:14 14° SE 07:18:38 10° ESE visible
02 Feb 9.5 07:14:19 10° S 07:17:45 18° SE 07:22:13 10° ESE visible
